Showing default

GEISAT PRECURSOR, 56934

Orbit data source: Space-Track

GEISAT PRECURSOR, 56934 is a payload satellite owned by Satlantis (ES) in SSO that was launched on Mon, 12 Jun 2023 UTC via an FALCON 9 launch vehicle from the Air Force Western Test Range (AFWTR). Payload-class satellites include a variety of spacecraft equipped with specific instruments for various scientific and technological missions. These include communications satellites like Starlink; space stations such as the ISS; scientific satellites like the Hubble; Earth observation satellites from companies like Planet Labs, Umbra, and HawkEye 360; GPS; miniature CubeSats for education and research; and military/defense satellites.

Loading next visibility...
Identifier
56934, 2023-084C
Orbit
SSO
Country
Flag of ESES / SPN
Related business
Manufacturer
NanoAvionics
Mission
Operational Commercial Imaging
Bus & Motor
CUBESAT 16U M16P, Unknown motor
Mass
~20 kg wet, ~20 kg dry
Launch date (UTC)
2023-06-12 (3 years ago)
Launch vehicle
FALCON 9
Launch site
Air Force Western Test Range (AFWTR)
Object type
Payload
Rocket body
Debris
Shape & HBR
Box, 0.2 m
Radar Cross Section
0.100 m², Medium (>0.1 m² and < 1m²)

Expand to show TLE details & history
Last TLE update: 4 hours ago

TLE from 4 hours ago
0 GEISAT PRECURSOR
1 56934U 23084C   26074.60923008  .00008241  00000-0  25962-3 0  9993
2 56934  97.6057 212.6669 0004821 321.0629  39.0265 15.33170502153183
Epoch: 2026-03-15T14:37Z
TLE epoch observation values (Epoch: 2026-03-15T14:37:17.478Z)
Latitude
-0.00004°
Longitude
-179.86952°
Altitude
466.899 km
Speed
7.634 km/s
True Right ascension
14h 10m 40s
True Declination
0° 00' 00"
Sunlit
Object was in full shadow at epoch
Visualization orbit readout
Latitude
Unknown
Longitude
Unknown
Altitude
Unknown
Speed
Unknown
Apparent Right ascension
Unknown
Apparent Declination
Unknown
Sunlit
N/A
Visualization observer readout
Local Sidereal Time
23:18:06
Azimuth
Unknown
Elevation
Unknown
Doppler factor
Unknown
Orbital elements
Apogee altitude
466.615 km
Perigee altitude
460.019 km
Semi-major axis
6,841.454 km
Eccentricity
0.00048
Inclination
97.6057°
RAAN
212.6669°
Arg. of periapsis
321.0629°
True anomaly
39.0613°
Mean anomaly
39.0265°
Eccentric anomaly
39.0439°
Mean motion
3.83549 °/min
Orbital period
93.86 mins
BSTAR
0.00025962
Loading maneuver chart data...
Computing Atmospheric mass density...

Documentation

Showing up to 5 results
|